SAUDICOMSAT 5

Last updated on Mon Sep 07 2026 00:03:16 GMT+0000 (Coordinated Universal Time)

1 31124U 07012H 26249.45832151 .00000299 00000+0 60304-4 0 9999 2 31124 98.3589 226.0277 0046220 228.9772 130.7433 14.68248293 35525
UTC large
Height (km)
Speed (km/s)
/
Latitude / Longitude
Inclination (degrees)
Orbital Period (minutes)
Azimuth
Elevation
Range (km)
Doppler Factor

Next 0 passes for location: London (51.5072 / 0.1276)

No passes found over London.
SAUDICOMSAT 5